COSMOS 1275 DEB, 13802

Orbit data source: Space-Track

COSMOS 1275 DEB, 13802 is space debris in LEO originally from a launch on Thu, 04 Jun 1981 UTC launched from the Plesetsk Missile And Space Complex (PKMTR). Debris objects in space refer to the collection of defunct objects orbiting the Earth. Examples of debris include non-operational satellites, rocket bodies, and fragments generated from explosions, collisions, or faulty payload assembly.

Loading next visibility...
Identifier
13802, 1981-053GW
Orbit
LEO
Country
Flag of CISCIS
Related business
Manufacturer
Unknown
Mission
Spacecraft
Bus & Motor
Unknown
Mass
Unknown
Launch date (UTC)
1981-06-04 (45 years ago)
Launch vehicle
Unknown
Launch site
Plesetsk Missile And Space Complex (PKMTR)
Object type
Payload
Rocket body
Debris
Shape & HBR
Unknown shape, 0.1 m
Radar Cross Section
Small (<0.1 m²)

Expand to show TLE details & history
Last TLE update: 10 hours ago

TLE from 10 hours ago
0 COSMOS 1275 DEB
1 13802U 81053GW  26094.18117058  .00000965  00000-0  90505-3 0  9995
2 13802  82.8003 137.7548 0063201  71.2224 350.0471 13.79735958215221
Epoch: 2026-04-04T04:20Z
TLE epoch observation values (Epoch: 2026-04-04T04:20:53.138Z)
Latitude
60.4277°
Longitude
-107.1767°
Altitude
929.407 km
Speed
7.416 km/s
True Right ascension
10h 02m 11s
True Declination
60° 16' 60"
Sunlit
Object was in daylight at epoch
Visualization orbit readout
Latitude
Unknown
Longitude
Unknown
Altitude
Unknown
Speed
Unknown
Apparent Right ascension
Unknown
Apparent Declination
Unknown
Sunlit
N/A
Visualization observer readout
Local Sidereal Time
20:01:24
Azimuth
Unknown
Elevation
Unknown
Doppler factor
Unknown
Orbital elements
Apogee altitude
1,008.361 km
Perigee altitude
915.581 km
Semi-major axis
7,340.108 km
Eccentricity
0.00632
Inclination
82.8003°
RAAN
137.7548°
Arg. of periapsis
71.2224°
True anomaly
349.92094°
Mean anomaly
350.0471°
Eccentric anomaly
349.98412°
Mean motion
3.45135 °/min
Orbital period
104.31 mins
BSTAR
0.00090505
Loading maneuver chart data...
Computing Atmospheric mass density...
Loading historical data...
Loading historical data...
Loading historical data...
Loading historical data...
Loading historical data...
Loading historical data...
Loading historical data...

Documentation

Showing up to 5 results
|